GFSWCAN_2pvu_pres_336.txt.gz
Presure
192 194 194 193 185 185 180 185 194 204 200 201 193 207 205 225 229 210 195 209 211 213 221 231 250 268 325 312 449 345 333 334 324 322 301 291 288 284 306 319 286 283 280 273 267 274 291 297 267 275 289 288 259 275
191 193 191 188 186 184 184 184 199 194 193 193 194 203 214 206 231 208 194 206 206 214 218 228 248 241 312 315 333 379 343 346 305 314 308 293 286 284 310 309 282 274 288 271 270 281 286 303 266 279 285 282 277 264
195 196 192 182 181 184 184 186 193 201 185 198 209 205 217 206 225 203 203 205 205 208 230 226 239 246 285 320 298 330 359 348 331 302 307 295 291 293 303 290 284 277 282 275 272 266 273 292 267 276 281 283 275 278
198 196 187 183 183 180 182 185 197 197 211 199 198 207 220 204 223 202 197 205 203 206 219 228 233 240 275 294 307 290 354 354 328 334 310 305 289 287 288 298 282 283 279 287 288 274 276 288 276 272 281 279 276 274
199 196 188 183 176 184 188 192 198 198 192 203 209 214 216 230 217 199 195 203 197 205 209 223 228 246 222 272 310 293 289 323 345 328 324 318 304 289 279 285 290 279 272 273 272 275 286 295 290 270 274 278 276 274
190 194 193 183 185 181 197 205 202 195 201 207 211 215 215 236 203 202 193 204 197 209 210 215 229 236 245 278 288 305 288 291 320 352 321 327 328 310 287 282 280 294 275 276 274 272 278 281 291 257 265 274 273 272
192 193 191 208 186 199 201 200 195 203 203 197 226 206 212 231 201 200 203 203 195 206 206 210 212 237 229 284 261 305 298 284 290 332 432 336 324 314 300 286 288 285 273 277 274 268 279 274 281 303 256 263 271 268
205 207 198 201 193 196 208 201 198 197 218 217 210 204 219 228 196 194 194 199 194 203 204 215 225 208 241 288 254 256 310 289 277 286 301 455 396 328 305 291 279 286 278 270 281 270 266 275 273 275 294 256 262 268
200 203 195 195 204 204 196 201 201 215 191 215 214 217 207 227 193 201 196 196 196 196 202 211 218 221 231 233 257 257 299 297 286 274 281 289 369 504 379 319 317 292 272 279 264 271 266 263 267 268 273 280 256 258
199 207 205 208 195 195 198 198 210 206 214 224 211 205 240 212 202 194 191 194 199 203 206 205 218 204 231 220 256 256 254 304 292 287 274 279 277 302 352 508 441 385 297 285 272 279 268 273 269 263 273 275 275 294
196 201 204 199 199 198 207 184 213 219 207 213 203 206 228 193 193 197 185 199 196 195 205 206 206 201 229 212 237 252 249 264 304 294 285 272 276 280 289 322 434 467 493 337 300 288 283 276 262 272 269 272 279 278
203 204 200 195 192 205 184 218 201 179 192 201 187 190 207 180 199 193 195 196 198 190 207 196 216 200 228 222 225 230 259 255 264 305 290 287 272 274 277 278 306 332 399 407 457 311 301 277 271 276 274 270 276 273
190 194 192 193 204 196 208 193 181 195 196 193 192 200 197 197 195 194 189 193 201 199 207 200 215 202 218 211 222 239 266 242 246 264 299 293 285 273 273 276 270 287 320 340 406 373 420 338 302 302 286 285 273 273
204 201 196 199 215 214 200 186 194 191 197 192 193 192 190 190 189 190 190 202 199 204 201 201 208 209 216 200 226 218 235 233 255 258 262 300 290 285 279 275 272 264 277 299 324 336 394 400 379 419 310 310 281 285
199 200 203 201 208 197 197 201 204 193 191 184 189 188 188 197 194 191 191 192 192 197 201 196 211 219 208 215 215 222 214 229 234 249 254 275 297 288 284 280 277 272 277 272 292 315 321 358 368 414 369 393 360 313
201 196 195 195 195 197 196 191 186 201 192 190 199 197 197 197 192 196 194 194 193 196 201 204 190 211 209 215 204 226 197 239 246 235 254 258 281 293 283 281 283 277 275 280 274 289 318 319 352 351 387 415 342 373
192 190 188 192 183 185 191 193 199 199 186 186 198 187 194 191 189 192 189 200 192 190 203 215 197 207 212 217 207 207 221 182 240 234 249 260 267 295 286 281 276 282 278 276 272 271 290 314 329 344 347 387 395 399
188 189 187 201 193 192 192 195 190 197 196 194 196 187 180 190 186 190 194 197 196 191 202 204 190 205 202 218 215 218 219 219 147 253 263 233 260 290 292 281 276 278 279 277 270 269 272 289 327 318 349 360 406 408
187 195 186 192 192 190 197 194 189 189 187 199 195 195 195 194 195 183 180 200 202 200 202 202 197 218 208 193 218 210 209 171 234 246 254 242 252 268 294 291 286 268 282 274 274 266 271 272 289 316 321 350 363 418
197 196 193 195 196 200 199 196 186 187 192 191 200 191 191 198 202 187 179 191 204 203 198 200 199 213 207 207 212 210 205 193 203 241 242 240 242 258 270 294 289 281 267 279 277 267 271 273 277 288 319 323 353 354
198 195 194 194 189 194 193 201 200 194 196 191 198 196 187 200 202 193 182 192 206 204 198 200 199 216 217 207 209 220 218 217 163 220 233 225 241 231 261 270 289 286 268 269 276 265 264 270 270 274 287 318 321 348
204 198 196 200 198 198 200 205 205 204 200 192 205 206 200 191 205 203 201 200 204 200 200 195 176 194 210 208 209 209 135 187 217 180 219 218 239 160 250 264 291 285 280 271 269 236 252 253 263 273 273 287 309 318
204 201 200 200 202 194 200 206 205 210 197 205 207 201 203 202 202 203 198 202 209 173 147 139 148 155 213 160 204 216 198 194 181 213 198 225 232 242 223 255 265 292 283 271 222 267 254 254 257 263 270 278 286 308
196 208 209 209 210 213 210 218 215 217 222 216 211 206 207 113 186 213 199 208 138 198 206 152 136 153 206 184 201 155 213 206 226 207 203 219 178 237 237 253 260 265 286 278 161 248 242 255 249 254 261 271 281 285
207 194 201 192 200 204 207 210 209 204 201 206 202 182 214 219 212 85 184 99 135 115 159 156 215 137 145 211 218 213 144 179 224 225 224 228 168 234 242 244 254 256 271 281 275 264 253 259 264 257 255 262 271 279
212 208 206 208 214 215 209 207 207 200 202 199 202 208 178 210 214 201 170 171 169 187 138 148 194 133 135 145 174 209 214 219 197 222 216 227 227 222 184 239 249 251 258 274 276 266 266 258 261 255 252 253 262 270
219 215 207 207 209 211 209 209 209 212 211 206 202 210 220 218 210 151 145 133 144 106 220 223 197 126 140 202 172 211 186 215 225 224 200 230 156 232 235 246 246 235 255 258 275 271 267 264 251 250 254 252 258 265
211 207 209 212 215 108 205 208 116 110 209 209 119 118 203 215 166 136 205 214 210 132 225 187 102 122 208 206 143 151 211 219 225 223 223 190 229 223 149 153 249 251 252 255 264 269 265 269 265 254 258 258 245 256
226 176 224 222 220 220 211 210 208 212 212 215 212 198 123 149 202 132 146 210 126 222 223 95 127 136 206 142 146 221 197 223 226 224 227 223 232 229 236 241 240 246 255 257 253 271 268 264 262 258 258 256 245 250
144 225 224 222 219 118 213 209 213 209 161 124 203 150 170 226 105 137 138 97 173 117 102 189 224 220 201 139 142 161 189 168 123 223 222 210 168 229 235 242 242 241 233 259 256 271 267 263 261 259 258 254 256 253
179 181 221 222 219 208 209 208 188 205 168 218 171 202 209 210 214 214 207 199 148 222 221 224 218 168 167 213 183 164 133 223 186 221 233 214 223 228 230 245 244 251 256 256 261 272 266 261 260 253 252 253 252 252
224 222 219 223 219 217 99 216 215 215 208 219 221 107 109 152 221 219 222 217 218 135 138 124 123 128 131 229 229 234 237 236 232 162 224 235 236 160 149 141 257 256 262 172 263 267 271 263 257 253 251 253 259 256
233 232 229 231 231 226 222 218 221 223 223 227 232 231 231 233 238 219 127 216 129 220 137 154 227 222 171 206 161 172 214 239 234 226 195 240 150 254 130 144 245 266 260 254 261 269 273 264 258 232 249 249 251 256

GFSWCAN_2pvu_pres_342.txt.gz
Presure
193 196 201 200 193 195 205 202 184 189 210 201 199 194 190 194 171 202 217 210 257 222 204 224 234 236 272 287 322 390 363 317 309 290 283 292 310 309 309 294 283 282 283 297 303 286 270 265 250 248 255 243 255 243
208 203 204 205 201 203 188 212 198 203 210 193 202 186 193 191 195 214 212 234 238 217 221 220 227 230 252 261 330 317 378 343 315 303 293 306 298 290 273 292 300 275 285 287 297 270 281 274 265 256 266 243 241 247
197 202 202 206 233 219 223 207 225 212 206 188 190 196 180 189 191 217 215 229 233 208 218 214 224 242 245 251 262 323 311 381 344 313 292 319 307 307 285 277 277 278 287 287 302 272 288 276 271 252 248 255 246 246
189 190 193 127 225 230 212 222 217 206 202 192 193 193 196 193 203 210 217 233 221 209 215 212 224 227 233 248 255 307 319 306 374 340 309 298 319 302 281 272 273 269 278 274 288 314 264 265 282 266 255 248 248 255
185 185 188 207 223 238 226 218 218 204 197 188 191 197 208 191 211 205 218 233 190 214 212 208 217 225 241 229 266 285 336 315 303 408 341 316 318 300 309 300 284 280 268 282 275 274 308 263 258 267 264 253 251 270
191 190 187 201 214 196 228 218 208 195 195 191 190 203 192 170 206 211 227 201 192 211 206 209 215 217 213 200 246 240 299 329 318 305 489 370 331 318 294 302 295 289 293 275 277 285 280 298 272 262 251 261 259 265
195 193 193 204 226 225 217 212 210 193 194 195 193 190 204 207 199 207 219 194 201 207 203 205 212 218 219 213 207 255 270 289 325 314 305 304 489 355 321 306 295 281 271 290 285 275 278 275 284 308 273 257 264 259
195 196 194 210 216 212 218 216 213 196 190 189 193 196 205 204 193 221 187 196 204 202 201 204 209 210 215 224 200 243 266 273 276 323 317 311 297 308 459 369 326 308 295 286 281 272 288 286 293 296 297 262 268 270
191 198 190 207 214 221 213 213 203 200 193 196 180 203 204 199 218 214 186 206 203 201 201 199 201 206 215 219 214 227 225 251 253 260 328 320 308 296 290 314 363 467 333 311 301 290 280 272 301 294 304 305 267 265
192 196 192 209 228 214 216 205 195 203 192 192 200 205 202 190 207 200 183 199 195 193 203 200 199 199 194 219 214 191 220 236 254 251 256 239 316 311 309 300 295 308 335 412 479 335 302 302 290 289 296 311 298 284
196 195 196 212 224 220 217 203 197 199 187 194 203 205 195 190 204 189 186 186 198 203 198 199 194 197 196 199 216 214 206 204 231 237 223 251 292 322 309 311 307 301 288 307 326 347 405 454 348 308 300 299 313 312
195 197 197 208 215 215 220 211 205 203 191 196 202 202 191 192 197 190 188 187 196 198 196 200 191 191 196 194 204 198 204 210 216 197 244 258 260 269 324 308 304 307 303 292 292 307 327 349 374 417 448 310 290 306
195 197 200 238 230 213 205 203 200 193 196 200 194 203 192 197 191 189 184 198 196 189 195 199 198 201 204 202 191 204 198 216 182 215 228 227 249 269 261 321 310 297 312 294 305 288 300 305 327 343 356 376 416 321
197 203 199 202 229 211 217 216 203 203 202 198 202 197 193 204 188 186 192 201 192 188 193 196 194 191 207 206 204 209 214 209 208 176 230 231 229 252 242 248 291 320 303 296 279 277 292 285 303 306 327 356 356 391
196 204 195 207 225 215 207 199 197 197 196 198 199 199 194 197 191 187 187 187 191 191 195 197 197 187 181 203 204 209 205 188 183 205 179 231 223 230 244 230 251 280 303 314 303 282 263 258 279 289 302 311 337 360
195 196 209 216 225 218 215 204 200 202 198 198 181 199 208 196 189 188 191 196 195 192 186 184 192 192 200 196 205 209 208 215 211 204 220 224 227 181 238 236 239 260 266 287 300 311 297 273 271 274 286 294 306 323
174 194 208 203 206 217 198 207 196 189 200 186 183 201 199 196 190 187 182 186 185 186 180 184 187 189 205 198 202 208 210 181 215 210 194 221 222 223 202 221 224 237 247 257 280 289 290 312 300 284 285 275 291 303
184 201 197 202 208 213 200 194 213 203 199 204 206 208 194 218 188 188 180 189 192 198 192 186 197 197 201 202 204 208 215 206 214 171 210 223 221 204 221 201 190 214 233 238 243 261 282 292 290 312 298 290 265 289
199 185 200 197 205 203 215 192 201 202 199 204 201 205 203 200 197 187 205 186 187 194 196 196 195 201 198 200 206 214 215 207 207 211 190 211 169 219 205 221 215 230 227 206 221 213 252 273 285 291 315 313 296 277
197 195 199 200 203 198 199 208 196 196 196 199 198 193 199 201 202 178 211 188 193 196 191 192 198 197 191 207 210 204 211 206 211 210 209 198 214 189 152 213 177 169 217 221 214 201 245 244 249 278 289 297 311 301
204 194 200 208 198 203 202 197 205 199 177 190 198 202 208 193 191 191 191 185 188 191 191 189 191 87 212 209 201 207 207 212 118 151 204 202 164 215 217 215 218 225 182 232 232 163 240 247 254 265 265 171 164 307
205 198 192 195 194 198 200 190 191 180 190 197 193 192 189 190 192 189 190 195 197 199 194 133 204 209 213 195 200 198 206 205 169 149 206 153 156 166 217 218 165 212 217 227 228 233 227 226 249 244 265 273 282 291
206 198 193 195 192 199 198 197 200 194 196 190 188 188 190 191 198 199 196 190 193 198 164 196 204 209 206 206 164 173 193 196 193 201 190 204 172 184 212 217 220 213 176 214 187 224 232 186 253 245 238 263 269 276
204 201 198 203 198 201 192 192 197 194 196 198 196 194 197 198 191 194 193 196 191 141 181 210 209 208 202 173 127 149 189 198 202 193 171 206 211 179 208 215 216 207 175 224 195 222 194 228 241 238 150 249 255 256
211 212 215 208 198 200 198 200 190 187 188 187 187 187 194 200 199 197 130 194 171 200 128 126 90 96 208 168 202 200 181 162 124 125 193 194 167 205 201 170 208 167 207 221 174 221 218 233 233 237 239 242 255 256
209 213 217 212 203 198 194 194 198 189 190 193 194 191 198 194 191 192 172 122 116 108 169 120 178 171 199 197 176 134 149 140 196 116 130 189 209 151 153 146 212 213 211 219 221 164 231 180 234 237 241 245 252 258
222 218 211 211 206 201 202 201 197 196 198 196 190 187 208 202 199 163 197 206 208 205 198 147 127 167 168 158 131 138 145 140 140 134 118 183 206 202 205 127 141 137 218 218 218 220 225 228 185 236 250 246 245 257
221 218 211 212 213 210 206 199 198 199 192 187 195 199 205 190 189 204 199 193 197 203 202 192 208 210 123 135 190 155 129 205 114 194 188 203 205 136 124 124 207 202 218 151 225 218 222 226 191 225 252 249 250 180
222 220 221 214 215 212 210 202 198 198 199 197 197 203 202 195 204 204 210 204 189 188 147 135 177 202 208 202 198 126 117 191 173 215 212 196 202 203 119 180 137 216 221 212 225 224 210 159 142 153 235 250 255 245
233 227 221 220 211 201 85 201 203 206 205 207 209 210 207 205 206 212 210 176 207 203 203 201 197 162 124 123 108 112 207 203 156 171 207 204 171 201 164 124 167 216 222 221 225 217 227 219 226 172 141 157 187 193
229 225 224 222 220 212 209 211 213 213 210 129 193 212 205 180 218 215 153 210 215 218 208 92 197 205 208 212 209 208 206 172 211 209 203 202 209 208 124 211 217 217 223 177 200 212 202 227 229 209 251 194 255 187
238 239 229 218 215 212 217 219 217 96 204 212 213 141 213 214 210 198 214 176 216 110 193 207 208 207 209 206 207 143 213 212 209 213 181 222 215 214 215 216 221 131 130 143 224 190 223 235 234 225 234 172 232 189
226 187 133 233 231 224 219 216 112 208 214 212 211 212 210 213 110 209 183 140 207 205 208 212 214 212 190 178 144 207 211 214 216 220 220 217 134 227 211 222 168 210 235 221 149 196 212 248 187 228 261 259 246 256

GFSWCAN_2pvu_pres_345.txt.gz
Presure
192 185 195 198 194 194 192 201 201 193 203 194 210 212 203 203 201 201 201 209 227 251 215 224 233 241 276 341 341 325 362 325 313 300 307 310 316 287 301 315 290 297 281 274 264 253 249 252 252 251 238 251 253 250
187 193 197 193 193 195 198 201 210 218 208 206 213 217 204 205 196 207 193 220 225 212 216 220 225 245 248 288 334 336 348 352 322 299 312 312 308 301 289 293 294 292 272 268 269 258 264 256 241 243 240 236 255 249
200 191 185 196 201 194 204 200 228 223 226 227 215 212 202 200 194 204 197 217 219 201 219 217 219 239 240 274 281 342 329 385 347 321 319 323 316 295 299 269 296 314 278 268 261 257 255 263 250 245 242 244 260 250
191 195 195 180 187 192 194 197 203 227 224 214 215 210 203 196 196 194 214 211 220 202 214 212 215 223 198 234 266 267 338 325 412 339 320 323 306 299 282 293 281 281 302 263 260 250 255 246 265 240 261 260 240 256
200 194 206 195 184 189 190 193 249 229 217 215 211 205 152 195 197 191 183 210 238 195 204 213 216 208 228 240 241 264 274 337 326 315 374 330 326 314 303 293 284 285 291 311 264 264 254 252 251 256 245 258 243 263
212 183 197 202 196 192 189 192 244 235 217 217 207 200 195 192 196 195 207 209 204 192 201 215 205 203 213 229 236 244 286 274 338 324 315 481 372 331 311 298 306 297 289 294 293 283 270 262 257 257 248 265 261 248
206 205 203 209 200 194 197 195 239 219 221 212 209 196 194 193 190 208 207 208 196 189 203 211 207 198 207 217 222 214 237 262 281 318 323 320 309 447 388 321 303 303 294 279 286 293 279 273 256 263 268 246 264 252
186 199 197 198 203 192 199 195 214 217 217 217 214 203 195 193 191 210 198 209 196 191 191 206 206 201 217 227 222 232 205 235 269 272 290 324 320 311 300 337 434 400 312 305 298 284 286 308 300 271 276 270 255 251
195 204 202 202 197 195 198 193 205 212 219 214 205 205 195 193 194 204 194 196 199 194 196 202 196 208 207 216 217 220 218 218 237 254 273 265 324 311 313 306 297 309 351 501 487 325 311 302 302 292 287 277 272 262
181 194 198 203 202 191 200 192 206 217 214 206 203 198 199 189 202 201 191 196 202 196 196 206 196 206 199 199 215 221 222 232 224 239 211 254 266 330 312 323 311 303 292 316 342 367 419 502 330 309 307 319 279 277
192 193 213 202 200 194 189 193 204 217 214 210 201 198 188 193 203 201 190 195 201 192 191 191 195 202 208 205 215 216 225 228 225 202 233 250 233 266 254 319 313 294 295 294 297 312 332 349 364 417 452 329 324 329
191 199 213 205 203 194 193 191 225 218 214 208 203 198 205 192 199 200 193 193 202 193 205 196 199 191 195 199 212 211 219 220 222 216 237 212 197 251 246 262 262 327 307 285 270 270 282 303 320 339 367 381 411 396
204 205 217 202 203 188 191 194 236 209 210 213 207 203 193 193 199 201 190 195 204 192 191 194 198 191 191 192 190 211 212 224 218 217 200 235 222 176 254 243 247 267 274 331 317 300 282 275 282 295 317 330 351 376
210 214 199 202 207 196 196 196 222 212 206 205 201 201 190 203 198 196 188 191 194 192 195 188 186 181 190 187 201 207 211 218 217 217 223 234 226 235 186 241 245 264 260 259 266 332 325 303 298 295 285 305 318 335
195 222 187 197 205 199 188 199 197 227 219 210 205 206 199 201 199 190 194 202 196 198 191 186 189 198 197 197 201 206 202 215 209 218 220 215 193 224 220 197 233 243 247 246 257 256 288 325 335 316 302 288 277 310
210 214 184 193 203 204 193 205 201 226 206 213 210 203 200 207 192 181 199 196 201 194 187 189 188 192 195 194 197 201 198 213 208 222 160 207 209 202 227 216 197 227 236 239 233 251 247 258 301 319 331 319 297 286
205 201 213 195 204 208 194 199 196 202 223 212 200 199 195 203 184 179 190 192 192 200 187 188 197 192 192 188 192 196 213 212 207 212 214 212 216 217 200 227 182 224 222 228 235 240 246 251 263 261 304 313 328 316
204 192 211 218 204 210 194 198 201 196 201 219 198 215 211 198 198 199 196 204 188 210 192 180 197 190 189 108 191 193 213 209 201 203 196 212 215 198 179 205 221 228 224 228 153 221 184 249 248 256 247 273 299 309
230 224 221 202 203 209 206 189 201 187 216 214 196 195 207 211 198 202 194 198 200 189 189 188 188 194 196 193 191 191 201 209 200 179 207 173 182 198 209 220 213 156 207 221 183 226 233 219 234 239 252 244 249 277
226 221 216 195 204 211 205 192 198 190 207 204 208 200 193 198 202 192 197 199 194 197 190 188 182 196 189 191 196 190 205 207 201 192 207 144 167 212 178 188 145 205 223 224 226 228 224 196 191 235 237 235 248 262
221 216 214 195 203 213 211 193 187 195 189 203 200 217 205 197 197 196 194 191 192 190 189 202 198 86 190 192 199 193 203 163 198 204 203 185 212 213 213 202 208 218 189 165 222 222 228 213 220 225 243 225 237 228
217 215 205 204 209 211 212 201 205 196 209 199 208 203 194 198 208 205 199 197 182 187 197 207 205 191 196 201 208 192 209 145 206 191 161 199 192 197 208 203 211 209 212 206 215 224 217 229 209 189 228 224 239 235
224 212 203 206 212 216 214 202 201 192 188 206 201 199 198 199 194 194 190 186 186 198 204 145 185 212 149 186 193 207 179 123 148 199 192 200 204 199 188 160 206 202 199 203 204 205 223 224 211 217 230 217 230 219
224 220 200 200 210 217 211 204 200 193 191 193 196 200 188 190 194 197 178 190 196 206 204 196 173 190 193 129 134 196 187 168 179 191 195 156 166 193 207 208 189 197 157 139 203 187 219 218 215 223 230 210 235 242
227 224 214 208 208 215 211 203 200 197 190 187 188 196 192 193 191 199 141 193 185 197 148 152 194 182 122 130 92 93 184 197 186 191 149 124 189 115 166 200 200 209 151 142 152 143 215 216 222 224 216 183 173 225
231 228 210 211 210 213 215 205 199 196 191 190 188 188 200 195 197 194 110 195 188 191 167 133 121 130 145 205 177 175 131 150 126 145 140 140 182 194 147 207 151 202 178 187 150 201 169 141 215 224 210 207 205 229
233 228 200 213 220 216 209 198 204 199 199 188 190 191 192 192 194 171 103 199 180 168 162 119 126 162 197 204 193 157 141 201 135 199 197 140 200 203 194 204 205 186 157 165 162 142 136 216 214 221 223 197 155 218
223 220 224 221 221 219 211 208 201 199 196 191 188 185 188 187 196 194 191 198 134 202 202 196 175 193 194 199 189 197 203 201 145 191 133 127 199 204 201 208 206 207 208 211 215 217 184 212 183 221 189 208 136 193
236 237 219 217 220 218 213 209 207 197 201 203 204 204 204 196 200 196 194 195 199 192 193 199 189 200 198 197 194 125 201 202 204 205 204 117 114 202 161 206 205 203 205 113 211 210 200 225 190 201 220 221 220 235
231 232 231 205 216 216 207 203 206 210 212 207 208 209 208 205 209 209 204 202 204 204 203 204 204 194 195 195 194 195 203 206 165 203 143 148 202 209 209 205 203 204 203 205 206 175 213 127 147 218 224 216 214 228
246 234 229 227 221 210 198 146 217 216 213 216 215 210 174 212 212 206 205 204 204 206 194 137 174 198 199 204 209 204 171 210 204 201 203 207 208 209 209 207 206 179 203 206 148 200 127 216 203 168 206 222 221 206
236 246 127 237 221 219 212 199 202 206 212 219 218 212 210 213 212 206 135 214 214 211 207 206 209 88 206 208 203 103 204 207 207 206 186 209 209 207 204 211 207 213 209 214 141 195 223 170 146 142 145 235 206 230
231 236 238 230 229 228 219 212 207 209 212 210 207 204 208 184 127 203 206 169 190 191 200 198 196 142 214 113 206 206 208 212 213 212 138 208 210 212 206 216 221 219 215 212 208 213 226 223 127 165 239 142 220 206

GFSWCAN_2pvu_pres_351.txt.gz
Presure
184 182 196 192 207 196 197 195 185 201 197 197 205 193 201 233 220 218 214 203 200 217 223 212 214 219 251 267 369 350 386 348 334 334 314 311 310 297 279 273 276 271 277 271 272 267 246 254 255 241 241 243 244 244
180 188 179 205 203 206 198 196 192 198 196 193 194 194 197 236 215 220 211 198 201 214 215 209 213 206 237 216 263 366 333 371 338 335 332 316 319 309 266 273 278 270 261 265 274 267 266 245 257 245 243 239 245 243
179 192 195 188 170 198 196 207 198 195 192 187 188 195 192 153 212 218 210 204 199 213 215 210 211 205 230 253 257 306 355 328 372 341 334 325 309 319 284 275 275 264 258 259 242 276 258 261 243 260 239 237 233 238
191 180 192 192 212 202 196 191 191 194 210 204 191 195 196 223 221 215 212 207 197 212 210 215 207 204 221 234 242 261 333 358 330 350 361 337 310 313 287 277 274 259 251 260 264 257 256 250 238 248 259 244 234 236
172 179 170 182 192 197 199 200 209 203 195 204 206 198 223 223 219 220 207 207 195 212 206 214 202 206 222 221 243 234 261 281 342 335 306 354 362 329 303 312 271 256 271 248 253 266 253 259 243 237 232 243 245 240
183 181 173 175 189 184 179 191 206 189 213 212 202 211 226 214 220 208 203 208 197 211 206 213 200 194 219 214 236 243 227 249 268 289 329 310 290 329 394 369 319 291 270 257 266 264 269 257 268 270 247 222 257 236
177 184 187 170 197 188 183 204 186 193 208 207 202 201 226 224 221 210 202 201 198 207 208 206 208 193 213 214 223 218 239 227 242 248 267 281 343 324 292 313 341 440 423 302 268 261 266 267 296 256 250 259 246 242
191 187 184 178 194 195 161 172 184 182 195 212 202 201 196 218 221 209 206 198 202 206 206 201 211 202 195 212 211 224 219 178 226 246 241 253 273 275 335 343 317 307 329 357 403 344 267 259 253 278 246 256 272 244
194 190 192 188 177 189 203 207 186 191 196 213 208 195 198 208 213 222 208 201 201 194 201 201 208 202 197 209 211 211 221 211 231 221 235 240 251 245 265 267 299 343 336 322 316 335 371 362 263 268 271 268 257 250
182 195 184 198 173 197 207 212 179 174 189 202 211 193 197 190 213 208 207 203 200 195 202 199 204 204 200 189 202 207 210 220 209 228 213 225 232 235 250 250 268 266 275 298 349 344 321 313 337 356 385 334 272 264
209 184 204 194 174 188 182 208 198 189 188 195 209 203 195 192 206 216 211 210 207 198 201 192 199 205 196 197 188 208 207 211 215 200 230 223 222 222 229 242 245 256 262 254 262 283 301 339 350 342 324 325 345 366
200 198 210 200 174 181 204 195 191 201 178 201 207 209 200 200 197 223 213 210 210 199 199 190 197 191 207 190 198 206 199 175 204 213 216 214 223 209 218 220 228 240 241 244 230 246 258 275 283 293 328 350 345 328
176 197 192 184 192 175 190 200 213 199 187 191 209 205 206 192 195 200 222 207 208 198 201 194 196 195 198 195 192 188 201 200 205 199 211 212 211 220 208 214 182 219 227 229 239 241 240 251 229 257 270 294 303 333
195 197 186 169 180 193 205 192 196 194 197 185 209 206 206 201 197 194 199 211 209 208 202 204 186 191 196 194 190 194 188 197 203 204 210 186 218 204 215 202 207 223 224 200 221 228 225 238 238 248 248 259 252 283
197 176 193 217 141 201 190 177 189 203 197 184 186 209 203 208 203 198 198 196 220 203 202 204 188 187 203 191 193 191 188 195 197 202 205 205 199 205 207 181 213 215 214 224 219 167 219 230 226 229 238 242 208 254
200 199 208 192 179 190 193 182 193 181 212 205 194 209 206 203 209 200 190 212 214 212 202 199 204 198 198 194 196 193 187 201 188 204 195 204 202 191 201 203 208 203 208 203 214 223 223 187 218 216 215 244 241 233
194 199 207 198 172 190 198 186 210 180 198 177 189 191 212 200 202 213 197 193 219 210 209 204 203 197 196 194 197 193 189 203 194 201 195 201 210 167 194 197 207 212 213 208 206 214 205 213 215 173 231 226 232 235
202 191 203 209 192 195 173 173 185 207 179 187 192 190 194 212 206 200 203 201 190 227 204 203 207 210 200 195 188 193 190 191 200 195 200 195 199 209 211 203 198 204 172 190 212 208 207 206 218 200 217 218 228 237
207 195 172 202 206 194 205 178 212 201 170 216 195 208 182 191 193 226 206 196 191 215 219 211 198 211 199 188 187 196 194 191 203 191 188 207 196 201 208 200 183 196 197 205 207 211 211 203 208 214 187 206 202 225
209 207 192 211 204 181 200 200 184 206 188 179 175 218 199 197 204 204 221 196 196 187 221 197 197 199 187 189 182 198 190 192 203 186 190 194 191 172 187 196 162 194 198 210 205 206 205 205 202 202 181 211 212 198
218 189 208 211 211 194 198 206 189 199 208 198 162 201 208 216 215 228 223 208 191 182 195 210 124 211 207 193 197 199 152 196 203 187 161 168 193 185 195 98 206 199 195 207 204 209 210 208 202 148 214 204 143 209
210 208 211 205 181 205 208 199 216 204 198 204 206 206 222 188 216 222 232 208 192 196 194 192 204 205 211 196 194 158 176 196 199 188 203 188 177 182 195 192 172 150 146 146 188 203 207 209 144 202 158 209 191 195
215 215 214 194 219 214 212 201 207 184 210 212 177 212 213 213 204 225 229 210 197 199 200 194 177 200 193 203 202 200 136 196 196 164 182 142 176 146 184 197 179 190 138 141 160 162 189 203 141 206 147 206 204 156
222 219 229 231 226 216 226 219 214 223 215 201 161 200 209 214 221 229 227 207 198 207 203 192 185 199 189 187 205 212 205 201 194 197 194 137 148 129 101 183 195 123 122 136 195 199 197 201 203 160 205 208 206 208
227 235 234 230 233 230 211 194 214 202 198 200 145 214 228 222 220 229 215 209 213 209 205 203 199 198 193 188 197 198 202 190 133 191 184 156 190 193 126 149 190 133 134 196 200 142 199 199 202 208 208 199 206 208
231 230 226 228 227 223 214 217 210 209 204 218 218 164 218 216 224 224 206 206 216 213 211 205 205 208 203 200 198 207 201 194 122 128 129 129 131 177 191 132 150 187 183 201 199 194 183 133 203 202 203 206 210 208
226 240 236 228 220 221 222 205 212 221 204 214 192 195 225 211 205 203 223 231 226 218 214 209 203 204 204 205 120 158 175 133 166 193 194 191 184 121 191 197 164 168 199 204 199 194 107 164 151 203 202 208 212 211
233 228 219 231 229 225 227 218 226 223 226 227 225 211 206 224 219 218 227 213 196 219 213 210 205 203 204 205 203 200 201 200 195 196 168 193 192 189 205 203 201 137 207 205 200 196 195 205 205 204 202 210 212 210
226 240 233 81 221 221 220 224 224 228 222 218 215 210 220 201 212 226 231 225 226 228 226 220 210 206 202 201 201 201 201 200 202 204 201 201 201 199 204 201 206 203 203 197 197 204 206 205 206 207 206 213 217 212
238 195 230 228 232 149 225 223 220 217 219 214 211 214 219 193 224 233 232 227 224 229 225 225 217 209 209 205 205 203 205 207 205 198 202 193 202 204 203 203 203 195 201 203 205 207 207 208 212 207 208 214 217 189
229 122 225 103 172 221 221 216 219 222 218 223 227 226 230 232 229 228 226 224 229 241 236 213 213 209 215 219 214 203 201 202 204 203 202 204 203 201 199 203 205 207 206 207 213 212 213 217 210 208 157 217 215 213
225 223 232 227 215 212 96 94 228 110 231 231 230 231 227 229 226 224 222 227 231 241 238 224 217 214 219 219 220 205 201 202 205 209 206 206 206 207 208 210 211 206 211 215 214 214 212 210 213 216 210 213 213 211
234 230 230 229 226 224 224 226 226 222 228 235 232 231 236 222 232 225 229 233 227 227 227 230 223 225 228 226 222 216 205 203 203 207 208 206 204 208 210 210 197 212 215 215 216 211 213 217 216 217 217 215 204 222